SL-16 DEB, 22474

Orbit data source: Space-Track

SL-16 DEB, 22474 is space debris in LEO originally from a launch on Fri, 25 Dec 1992 UTC launched from the Tyuratam Missile And Space Complex (TTMTR). Debris objects in space refer to the collection of defunct objects orbiting the Earth. Examples of debris include non-operational satellites, rocket bodies, and fragments generated from explosions, collisions, or faulty payload assembly.

Loading next visibility...
Identifier
22474, 1992-093FP
Orbit
LEO
Country
Flag of CISCIS
Related business
Manufacturer
Unknown
Mission
Spacecraft
Bus & Motor
Unknown
Mass
Unknown
Launch date (UTC)
1992-12-25 (33 years ago)
Launch vehicle
Unknown
Launch site
Tyuratam Missile And Space Complex (TTMTR)
Object type
Payload
Rocket body
Debris
Shape & HBR
Unknown shape, 0.1 m
Radar Cross Section
Small (<0.1 m²)

Expand to show TLE details & history
Last TLE update: 20 hours ago

TLE from 20 hours ago
0 SL-16 DEB
1 22474U 92093FP  25296.37840941  .00008117  00000-0  38769-2 0  9994
2 22474  71.3013  31.7097 0144566 161.9255 198.7088 14.14056762656833
Epoch: 2025-10-23T09:04Z
TLE epoch observation values (Epoch: 2025-10-23T09:04:54.573Z)
Latitude
0.00004°
Longitude
-136.55619°
Altitude
947.021 km
Speed
7.328 km/s
True Right ascension
02h 06m 50s
True Declination
0° 00' 00"
Sunlit
Object was in full shadow at epoch
Visualization orbit readout
Latitude
Unknown
Longitude
Unknown
Altitude
Unknown
Speed
Unknown
Apparent Right ascension
Unknown
Apparent Declination
Unknown
Sunlit
N/A
Visualization observer readout
Local Sidereal Time
23:59:03
Azimuth
Unknown
Elevation
Unknown
Doppler factor
Unknown
Orbital elements
Apogee altitude
947.818 km
Perigee altitude
739.019 km
Semi-major axis
7,221.555 km
Eccentricity
0.01446
Inclination
71.3013°
RAAN
31.7097°
Arg. of periapsis
161.9255°
True anomaly
198.18639°
Mean anomaly
198.7088°
Eccentric anomaly
198.44671°
Mean motion
3.53669 °/min
Orbital period
101.79 mins
BSTAR
0.0038769
Loading maneuver chart data...
Computing Atmospheric mass density...
Loading historical data...
Loading historical data...
Loading historical data...
Loading historical data...
Loading historical data...
Loading historical data...
Loading historical data...

Documentation

Showing up to 5 results
|